GW5770 Weather Reports


time (UTC)temp
F
wind
direction
speed
knots
gust
knots
rain 1hr
in
rain 24hr
in
rain mn
in
humidity
%
barometer
mb
20260504202643 78 246 1.7 8.7 0.00 0.00 0.00 31 1010.7
20260504202140 78 185 1.7 3.5 0.00 0.00 0.00 30 1010.6
20260504201637 78 199 0.0 3.5 0.00 0.00 0.00 31 1010.6
20260504201135 79 180 0.9 1.7 0.00 0.00 0.00 33 1010.9
20260504200632 79 253 2.6 3.5 0.00 0.00 0.00 32 1010.9
20260504200128 77 195 1.7 2.6 0.00 0.00 0.00 32 1011.1
20260504195624 78 233 0.9 7.0 0.00 0.00 0.00 33 1011.1
20260504195120 78 265 0.9 2.6 0.00 0.00 0.00 34 1011.1
20260504194617 79 234 1.7 8.7 0.00 0.00 0.00 31 1010.9
20260504194113 79 182 1.7 3.5 0.00 0.00 0.00 31 1011.1
20260504193609 79 127 0.9 3.5 0.00 0.00 0.00 32 1011.2
20260504193108 78 158 3.5 5.2 0.00 0.00 0.00 30 1011.2
20260504192606 78 229 1.7 2.6 0.00 0.00 0.00 32 1011.4
20260504192104 79 221 2.6 7.0 0.00 0.00 0.00 31 1011.5
20260504191602 80 270 0.0 2.6 0.00 0.00 0.00 34 1011.7
20260504191057 80 230 1.7 3.5 0.00 0.00 0.00 30 1011.5
20260504190554 80 236 0.9 1.7 0.00 0.00 0.00 30 1011.8
20260504190050 78 236 0.0 2.6 0.00 0.00 0.00 33 1011.9
20260504185547 80 217 1.7 7.0 0.00 0.00 0.00 31 1012.0
20260504185044 78 329 0.9 3.5 0.00 0.00 0.00 31 1012.0
20260504184539 78 197 0.9 2.6 0.00 0.00 0.00 32 1012.0
20260504184035 78 267 1.7 5.2 0.00 0.00 0.00 32 1012.2
20260504183532 79 283 5.2 9.6 0.00 0.00 0.00 32 1012.2
20260504183030 77 327 2.6 3.5 0.00 0.00 0.00 33 1012.2
20260504182527 79 194 4.3 6.1 0.00 0.00 0.00 33 1012.4
20260504182024 79 238 1.7 5.2 0.00 0.00 0.00 33 1012.6
20260504181521 78 241 1.7 7.8 0.00 0.00 0.00 32 1012.6
20260504181019 77 159 0.9 3.5 0.00 0.00 0.00 34 1012.7
20260504180518 77 33 0.9 2.6 0.00 0.00 0.00 32 1012.9
20260504180016 78 179 0.9 5.2 0.00 0.00 0.00 34 1013.0
20260504175513 77 222 0.9 3.5 0.00 0.00 0.00 32 1013.0
20260504175010 76 85 2.6 3.5 0.00 0.00 0.00 32 1012.9
20260504174508 75 189 0.9 3.5 0.00 0.00 0.00 34 1013.0
20260504174005 75 203 2.6 3.5 0.00 0.00 0.00 33 1013.2
20260504173501 75 237 0.9 2.6 0.00 0.00 0.00 32 1013.1
20260504172959 76 275 2.6 5.2 0.00 0.00 0.00 34 1013.3
20260504172454 75 163 0.9 3.5 0.00 0.00 0.00 35 1013.2
20260504171951 76 231 0.0 5.2 0.00 0.00 0.00 33 1013.4
20260504171449 75 226 0.0 2.6 0.00 0.00 0.00 35 1013.3
20260504170945 74 183 0.0 2.6 0.00 0.00 0.00 35 1013.6
20260504170441 74 177 4.3 7.8 0.00 0.00 0.00 34 1013.6
20260504160401 72 210 0.0 3.5 0.00 0.00 0.00 34 1014.3
20260504150825 71 215 0.9 5.2 0.00 0.00 0.00 34 1014.8
20260504150322 71 213 1.7 6.1 0.00 0.00 0.00 33 1014.8
20260504141252 67 236 1.7 1.7 0.00 0.00 0.00 36 1014.9
20260504140749 68 210 0.9 1.7 0.00 0.00 0.00 36 1015.0
20260504140244 68 211 1.7 2.6 0.00 0.00 0.00 37 1014.8
20260504130713 60 234 0.0 2.6 0.00 0.00 0.00 48 1015.5
20260504130209 60 220 1.7 2.6 0.00 0.00 0.00 48 1015.4
20260504120133 54 188 0.9 1.7 0.00 0.00 0.00 56 1015.7
20260504110600 51 214 0.9 0.9 0.00 0.00 0.00 61 1015.9
20260504100522 50 203 0.0 0.0 0.00 0.00 0.00 62 1015.8
20260504081915 50 183 0.9 2.6 0.00 0.00 0.00 63 1015.9
20260504081412 50 165 1.7 1.7 0.00 0.00 0.00 63 1016.1
20260504080908 50 190 0.9 1.7 0.00 0.00 0.00 63 1016.3
20260504080405 50 190 0.9 0.9 0.00 0.00 0.00 64 1016.3
20260504070333 50 209 0.0 0.0 0.00 0.00 0.00 56 1016.3
20260504050721 47 200 0.0 0.0 0.00 0.00 0.00 64 1016.6
20260504050218 46 200 0.0 0.0 0.00 0.00 0.00 65 1016.6
20260504045715 46 200 0.0 0.0 0.00 0.00 0.00 66 1016.6
20260504045215 45 200 0.0 0.0 0.00 0.00 0.00 66 1016.8
20260504044713 45 200 0.0 0.0 0.00 0.00 0.00 67 1016.6
20260504044210 44 200 0.0 0.0 0.00 0.00 0.00 67 1016.7
20260504043707 44 200 0.0 0.0 0.00 0.00 0.00 67 1016.6
20260504043204 44 200 0.0 0.0 0.00 0.00 0.00 68 1016.6
20260504042702 43 200 0.0 0.0 0.00 0.00 0.00 67 1016.5
20260504042158 44 200 0.0 0.0 0.00 0.00 0.00 66 1016.5
20260504041654 44 200 0.0 0.0 0.00 0.00 0.00 67 1016.8
20260504041150 44 200 0.0 0.0 0.00 0.00 0.00 68 1016.6
20260504040647 44 200 0.0 0.0 0.00 0.00 0.00 68 1016.6
20260504040144 44 200 0.0 0.0 0.00 0.00 0.00 68 1016.6
20260504035641 43 200 0.0 0.0 0.00 0.00 0.00 67 1016.7
20260504035137 43 200 0.0 0.0 0.00 0.00 0.00 69 1016.7
20260504034635 44 200 0.0 0.0 0.00 0.00 0.00 68 1016.6
20260504034132 44 200 0.0 0.0 0.00 0.00 0.00 68 1016.6
20260504033630 44 200 0.0 0.0 0.00 0.00 0.00 68 1016.7
20260504033127 44 200 0.0 0.0 0.00 0.00 0.00 67 1016.7
20260504032624 45 201 0.0 0.0 0.00 0.00 0.00 68 1016.6
20260504032120 45 198 0.0 0.0 0.00 0.00 0.00 68 1016.5
20260504031618 45 198 0.0 0.0 0.00 0.00 0.00 68 1016.5
20260504031113 45 198 0.0 0.0 0.00 0.00 0.00 68 1016.4
20260504030611 45 214 0.0 0.0 0.00 0.00 0.00 68 1016.4
20260504030107 45 220 0.0 0.0 0.00 0.00 0.00 67 1016.3
20260504025604 45 220 0.0 0.0 0.00 0.00 0.00 67 1016.4
20260504025101 45 215 0.0 0.0 0.00 0.00 0.00 66 1016.4
20260504024559 45 215 0.0 0.0 0.00 0.00 0.00 66 1016.2
20260504024055 46 213 0.0 0.0 0.00 0.00 0.00 65 1016.3
20260504023552 46 213 0.0 0.0 0.00 0.00 0.00 64 1016.2
20260504023048 46 213 0.0 0.0 0.00 0.00 0.00 63 1016.2
20260504022544 47 213 0.0 0.0 0.00 0.00 0.00 62 1016.2
20260504022040 47 213 0.0 0.0 0.00 0.00 0.00 62 1016.1
20260504021538 47 213 0.0 0.0 0.00 0.00 0.00 62 1016.1
20260504021034 47 213 0.0 0.0 0.00 0.00 0.00 62 1015.9
20260504020531 47 213 0.0 0.0 0.00 0.00 0.00 61 1016.1
20260504020028 48 213 0.0 0.0 0.00 0.00 0.00 60 1015.8
20260504015524 48 213 0.0 0.0 0.00 0.00 0.00 59 1015.9
20260504015020 49 213 0.0 0.0 0.00 0.00 0.00 58 1015.9
20260504014517 49 203 0.0 0.0 0.00 0.00 0.00 57 1015.8
20260504014014 49 200 0.0 0.0 0.00 0.00 0.00 55 1015.8
20260504013512 50 191 0.0 0.0 0.00 0.00 0.00 54 1015.8
20260504013009 50 195 0.0 0.0 0.00 0.00 0.00 54 1015.8
20260504012506 50 195 0.0 0.0 0.00 0.00 0.00 53 1015.7
20260504012004 50 201 0.0 0.0 0.00 0.00 0.00 52 1015.7
20260504011500 51 215 0.0 0.0 0.00 0.00 0.00 50 1015.7
20260504010955 51 215 0.0 0.0 0.00 0.00 0.00 51 1015.8
20260504010452 51 216 0.0 0.0 0.00 0.00 0.00 49 1015.6
20260504005948 52 218 0.0 0.0 0.00 0.00 0.00 46 1015.5
20260504005445 53 218 0.0 0.0 0.00 0.00 0.00 45 1015.6
20260504004942 53 218 0.0 0.0 0.00 0.00 0.00 45 1015.6
20260504004440 54 220 0.0 0.0 0.00 0.00 0.00 44 1015.4
20260504003937 55 211 0.0 0.0 0.00 0.00 0.00 42 1015.5
20260504003433 55 192 0.0 0.0 0.00 0.00 0.00 39 1015.4
20260504002930 56 182 0.0 0.0 0.00 0.00 0.00 38 1015.3
20260504002427 56 194 0.0 0.0 0.00 0.00 0.00 37 1015.3
20260504001924 57 199 0.0 0.0 0.00 0.00 0.00 36 1015.4
20260504001422 57 202 0.0 0.0 0.00 0.00 0.00 35 1015.4
20260504000918 57 200 0.0 0.0 0.00 0.00 0.00 36 1015.1
20260504000416 58 200 0.0 0.0 0.00 0.00 0.00 35 1015.1
20260503235913 58 222 0.0 0.0 0.00 0.00 0.00 35 1015.0
20260503235410 59 231 0.9 2.6 0.00 0.00 0.00 33 1015.1
20260503234908 59 233 0.0 0.0 0.00 0.00 0.00 35 1015.0
20260503234405 59 246 0.9 1.7 0.00 0.00 0.00 32 1014.9
20260503233903 60 193 0.0 1.7 0.00 0.00 0.00 34 1015.0
20260503233359 60 221 0.0 0.9 0.00 0.00 0.00 34 1015.1
20260503232855 60 184 0.9 1.7 0.00 0.00 0.00 35 1015.1
20260503232353 60 194 0.0 0.9 0.00 0.00 0.00 33 1014.9
20260503231850 61 206 0.0 1.7 0.00 0.00 0.00 32 1014.9
20260503231347 62 236 0.9 1.7 0.00 0.00 0.00 30 1014.9
20260503230843 64 229 0.0 1.7 0.00 0.00 0.00 31 1014.7
20260503230340 64 248 1.7 2.6 0.00 0.00 0.00 29 1014.6
20260503225838 63 279 1.7 5.2 0.00 0.00 0.00 29 1014.8
20260503225333 65 218 0.9 3.5 0.00 0.00 0.00 28 1014.8
20260503224830 65 347 0.9 1.7 0.00 0.00 0.00 28 1014.7
20260503224328 65 217 0.0 2.6 0.00 0.00 0.00 28 1014.7
20260503223825 65 293 0.9 1.7 0.00 0.00 0.00 28 1014.7
20260503223322 64 201 0.0 0.9 0.00 0.00 0.00 29 1014.9
20260503222818 63 227 3.5 7.0 0.00 0.00 0.00 28 1014.8
20260503222317 64 39 0.9 7.0 0.00 0.00 0.00 28 1014.8
20260503221815 64 296 3.5 7.8 0.00 0.00 0.00 27 1014.8
20260503221313 65 298 1.7 3.5 0.00 0.00 0.00 29 1014.9
20260503220808 64 208 0.9 2.6 0.00 0.00 0.00 28 1014.7
20260503220306 64 230 0.9 5.2 0.00 0.00 0.00 28 1014.8
20260503215802 64 215 0.0 2.6 0.00 0.00 0.00 29 1014.9
20260503215259 64 257 2.6 6.1 0.00 0.00 0.00 27 1014.9
20260503214757 64 274 3.5 6.1 0.00 0.00 0.00 27 1015.1
20260503214254 63 229 0.9 1.7 0.00 0.00 0.00 30 1014.9
20260503213752 63 340 4.3 7.0 0.00 0.00 0.00 28 1015.1
20260503213249 64 239 1.7 6.1 0.00 0.00 0.00 29 1014.9
20260503212746 64 295 0.9 2.6 0.00 0.00 0.00 29 1015.2
20260503212244 63 190 0.0 1.7 0.00 0.00 0.00 30 1015.0
20260503211741 63 143 1.7 6.1 0.00 0.00 0.00 29 1015.1
20260503211237 64 179 3.5 6.1 0.00 0.00 0.00 28 1014.9
20260503210732 64 22 0.9 2.6 0.00 0.00 0.00 29 1015.2
20260503210230 64 334 3.5 6.1 0.00 0.00 0.00 28 1015.2
20260503205725 63 277 4.3 7.8 0.00 0.00 0.00 28 1015.1
20260503205222 64 260 7.8 12.2 0.00 0.00 0.00 28 1015.3
20260503204718 64 249 3.5 6.1 0.00 0.00 0.00 29 1015.2
20260503204216 63 322 3.5 5.2 0.00 0.00 0.00 28 1015.1
20260503203713 63 186 1.7 6.1 0.00 0.00 0.00 30 1015.2
20260503203211 64 282 2.6 6.1 0.00 0.00 0.00 29 1015.1